[[{"header":{"parameterUnit":"m.s-1","parameterCategory":2,"la1":30.2991,"la2":30.254,"lo1":-89.0895,"lo2":-89.0444,"dy":0.0017,"dx":0.0017,"nx":28,"ny":28,"refTime":"2024-07-29T03:00:00:Z","depth":"0","parameterNumber":2,"parameterNumberName":"U-component_of_CURRENTS"},"data":[0,0,0,0,0,0,0,0,0,0,0,0,0,0,0,0,0,0,0,0,0,0,0,0,0,0,0,0,0,0,0,0,0,0,0,0,0,0,0,0,0,0,0,0,0,0,0,0,0,0,0,0,0,0,0,0,0,0,0.4736,0.4737,0,0.4795,0.4796,0.4796,0.4797,0.4797,0.4796,0.4795,0.4824,0.4825,0.4827,0,0,0,0,0,0,0,0,0,0,0,0,0,0.471,0.471,0.4736,0.4737,0.4738,0.4795,0.4796,0.4797,0.4797,0.4797,0.4796,0.4795,0.4823,0.4825,0.4827,0,0,0,0,0,0,0,0,0,0,0,0,0,0.474,0.471,0.4736,0.4745,0.4747,0.4795,0.4796,0.4797,0.4798,0.4797,0.4795,0.4794,0.4823,0.4825,0.4827,0.4862,0,0,0.4834,0.4835,0,0,0,0,0,0,0,0,0.4738,0.4741,0.4743,0.4745,0.4746,0.4788,0.4797,0.4817,0.4798,0.4778,0.4795,0.4794,0.481,0.4813,0.4827,0.4864,0.4865,0.4834,0.4835,0.4836,0.4837,0,0,0,0,0,0,0,0.4736,0.4739,0.476,0.4744,0.4746,0.4775,0.4778,0.4801,0.4799,0.478,0.478,0.4787,0.481,0.4825,0.4827,0.4865,0.4834,0.4836,0.4837,0.4838,0.4886,0.4886,0,0,0,0,0,0,0.4726,0.4736,0.4758,0.4761,0.474,0.4776,0.4779,0.4776,0.4799,0.4802,0.4788,0.4787,0.4822,0.4825,0.4828,0.4841,0.4836,0.4838,0.4839,0.4886,0.4886,0.4886,0,0,0,0,0,0,0.4725,0.4726,0.4755,0.4751,0.4757,0.4777,0.4774,0.4777,0.4792,0.4806,0.4808,0.4799,0.4821,0.4825,0.4839,0.4843,0.4839,0.4841,0.4886,0.4886,0.4886,0.4885,0,0,0,0,0,0,0.4723,0.4726,0.4719,0.475,0.4756,0.4776,0.4775,0.4779,0.4798,0.4797,0.4816,0.4818,0.482,0.4836,0.4841,0.4845,0.4843,0.4886,0.4886,0.4886,0.4885,0.4885,0.4885,0,0,0,0,0,0.4722,0.471,0.4719,0.4721,0.4747,0.4776,0.4783,0.4794,0.48,0.4805,0.4813,0.4817,0.4839,0.4838,0.4845,0.4849,0.4886,0.4886,0.4886,0.4885,0.4885,0.4885,0,0,0,0,0,0,0.469,0.4711,0.472,0.4713,0.4742,0.4776,0.4777,0.4801,0.4816,0.4809,0.4825,0.4828,0.4847,0.4847,0.4845,0.4861,0.4861,0.4862,0.4858,0.4858,0.4858,0.491,0.4844,0,0,0,0,0,0.4683,0.4683,0.4713,0.4711,0.4718,0.4754,0.4768,0.4783,0.4803,0.4809,0.4821,0.4832,0.4855,0.4853,0.4872,0.4882,0.4925,0.4885,0.4885,0.4885,0.4931,0.5011,0.5023,0.4886,0.4886,0.4886,0,0,0.4671,0.4684,0.4683,0.4706,0.4723,0.474,0.4759,0.4777,0.4801,0.481,0.4829,0.4843,0.4861,0.4872,0.4879,0.4868,0.4934,0.4885,0.4885,0.4932,0.5012,0.5026,0.5039,0.4886,0.4886,0.4886,0,0,0.4639,0.4656,0.4639,0.466,0.4687,0.4728,0.4736,0.4769,0.4788,0.4813,0.483,0.4855,0.4864,0.4891,0.4904,0.4919,0.4944,0.49,0.493,0.5005,0.5018,0.5031,0.5054,0.5069,0.4884,0.4884,0.4884,0,0.4602,0.461,0.4642,0.4633,0.4659,0.4722,0.4728,0.4766,0.4803,0.4835,0.481,0.4881,0.4886,0.4944,0.4939,0.4925,0.4954,0.4926,0.5009,0.5022,0.5035,0.5057,0.5073,0.4883,0.4884,0.4884,0.4884,0,0.4574,0.4573,0.4567,0.4589,0.4628,0.4644,0.4708,0.4756,0.4793,0.4829,0.489,0.4907,0.4957,0.4943,0.4946,0.503,0.5014,0.5013,0.5016,0.505,0.5068,0.5085,0.4883,0.4883,0.4883,0.4883,0,0,0.4445,0.4529,0.451,0.4557,0.4609,0.4656,0.471,0.4797,0.4856,0.4885,0.4949,0.4991,0.5019,0.504,0.5046,0.5097,0.518,0.5088,0.5092,0.5123,0.5316,0.5125,0.5125,0.5193,0.5197,0.52,0.5275,0,0.4391,0.4426,0.4461,0.4513,0.4557,0.4644,0.4701,0.4793,0.486,0.4932,0.4989,0.5039,0.5047,0.5063,0.513,0.5183,0.5234,0.5159,0.5272,0.5275,0.5112,0.5142,0.4867,0.4897,0.5292,0.5294,0.5297,0,0.4321,0.4373,0.4427,0.4551,0.4567,0.461,0.4769,0.482,0.4939,0.4975,0.5058,0.5099,0.52,0.5179,0.5335,0.5285,0.5321,0.5347,0.535,0.5202,0.5118,0.4936,0.4913,0.4812,0.5323,0.5321,0.5319,0,0.431,0.4341,0.4422,0.4452,0.4588,0.4639,0.4712,0.4835,0.4892,0.501,0.5046,0.5177,0.5222,0.5334,0.5403,0.538,0.5547,0.5514,0.5379,0.5364,0.5171,0.5131,0.5082,0.564,0.564,0.564,0.5639,0,0.4285,0.4346,0.4424,0.4488,0.4581,0.4642,0.474,0.4839,0.4911,0.4963,0.5067,0.5119,0.5268,0.5367,0.5438,0.5457,0.5586,0.5411,0.5387,0.515,0.511,0.5046,0.502,0.5642,0.5642,0.5641,0.5641,0,0.4348,0.437,0.4487,0.4588,0.4607,0.4695,0.4766,0.4805,0.4882,0.495,0.4981,0.5102,0.5197,0.5322,0.5471,0.5455,0.5354,0.5494,0.5174,0.5109,0.4812,0.4795,0.462,0.4499,0.5335,0.5331,0.5327,0,0.445,0.4497,0.4589,0.4593,0.4645,0.4721,0.4738,0.4813,0.4831,0.4927,0.4942,0.504,0.5059,0.5186,0.5199,0.5256,0.5197,0.5023,0.4927,0.4771,0.4739,0.4618,0.4524,0.4662,0.4653,0.4646,0.4641,0,0.461,0.4605,0.465,0.4664,0.467,0.4709,0.4732,0.4738,0.4781,0.4805,0.4796,0.4801,0.4853,0.4744,0.4803,0.4823,0.4744,0.4872,0.4825,0.4301,0.4061,0.3939,0.4622,0.4578,0.4584,0.4589,0.4592,0.4595,0.4681,0.4706,0.4659,0.4669,0.4659,0.4618,0.4562,0.4545,0.4522,0.4413,0.4574,0.4428,0.4397,0.4389,0.4397,0.4203,0.4279,0.4068,0.409,0.4007,0.3784,0.4291,0.4143,0.4147,0.415,0.4152,0.4155,0,0.4664,0.4619,0.464,0.4555,0.4471,0.4518,0.4455,0.4297,0.4146,0.4128,0.4047,0.3894,0.3757,0.3747,0.3633,0.3489,0.3381,0.3399,0.3213,0.3187,0.3736,0.3598,0.3183,0.3184,0.3184,0.3184,0.3184,0.3184,0.4611,0.453,0.4511,0.4325,0.4263,0.4036,0.3945,0.3762,0.3669,0.3388,0.322,0.3232,0.3327,0.3271,0.3108,0.3031,0.2882,0.2655,0.2778,0.321,0.3276,0.3339,0.3205,0.2715,0.2714,0.206,0.2055,0.2051]},{"header":{"parameterUnit":"m.s-1","parameterCategory":2,"la1":30.2991,"la2":30.254,"lo1":-89.0895,"lo2":-89.0444,"dy":0.0017,"dx":0.0017,"nx":28,"ny":28,"refTime":"2024-07-29T03:00:00:Z","depth":"0","parameterNumber":3,"parameterNumberName":"V-component_of_CURRENTS"},"data":[0,0,0,0,0,0,0,0,0,0,0,0,0,0,0,0,0,0,0,0,0,0,0,0,0,0,0,0,0,0,0,0,0,0,0,0,0,0,0,0,0,0,0,0,0,0,0,0,0,0,0,0,0,0,0,0,0,0,0.037,0.037,0,0.0353,0.0352,0.0352,0.0286,0.0286,0.0285,0.0284,0.0189,0.0187,0.0185,0,0,0,0,0,0,0,0,0,0,0,0,0,0.0293,0.0294,0.037,0.037,0.0371,0.0353,0.0352,0.0351,0.0287,0.0286,0.0284,0.0283,0.0189,0.0187,0.0185,0,0,0,0,0,0,0,0,0,0,0,0,0,0.03,0.0295,0.037,0.0341,0.0339,0.0353,0.0352,0.0351,0.0287,0.0286,0.0284,0.0283,0.019,0.0187,0.0185,0.0196,0,0,0.0177,0.0176,0,0,0,0,0,0,0,0,0.03,0.0302,0.0345,0.0343,0.0341,0.0326,0.0291,0.0298,0.0287,0.03,0.0284,0.0282,0.0233,0.0227,0.0218,0.0191,0.0187,0.0177,0.0175,0.0174,0.0173,0,0,0,0,0,0,0,0.0299,0.0302,0.0356,0.0346,0.0343,0.0311,0.0311,0.0291,0.0267,0.0298,0.0295,0.0304,0.023,0.0221,0.0215,0.0186,0.0177,0.0175,0.0173,0.0172,0.015,0.0151,0,0,0,0,0,0,0.032,0.0302,0.0357,0.0357,0.0324,0.0315,0.0313,0.0327,0.0269,0.0262,0.0306,0.0302,0.0226,0.0218,0.0212,0.0228,0.0174,0.0172,0.017,0.0149,0.015,0.0152,0,0,0,0,0,0,0.0318,0.0325,0.0358,0.0334,0.0336,0.0318,0.0333,0.0327,0.0318,0.0277,0.0266,0.0304,0.0224,0.0215,0.0196,0.0224,0.0171,0.0168,0.0148,0.015,0.0151,0.0257,0,0,0,0,0,0,0.0316,0.0324,0.0338,0.0336,0.0339,0.0371,0.0335,0.0328,0.0329,0.0324,0.0272,0.0261,0.0223,0.02,0.0194,0.0219,0.0166,0.0147,0.0149,0.0151,0.0252,0.0262,0.027,0,0,0,0,0,0.0313,0.0339,0.0339,0.0346,0.036,0.0373,0.0371,0.0348,0.0331,0.0333,0.0297,0.0263,0.0207,0.0199,0.0191,0.0217,0.0146,0.0148,0.015,0.0248,0.026,0.027,0,0,0,0,0,0,0.0309,0.0336,0.0335,0.0367,0.0374,0.0365,0.0371,0.0358,0.0333,0.0325,0.0275,0.0263,0.0258,0.0222,0.0215,0.0214,0.0171,0.0172,0.0249,0.0259,0.0268,0.0292,0.0164,0,0,0,0,0,0.0321,0.0346,0.0361,0.0386,0.0395,0.0385,0.0388,0.0377,0.036,0.0347,0.0314,0.028,0.0263,0.0248,0.0223,0.0224,0.0204,0.0234,0.0243,0.0251,0.0264,0.0268,0.0279,0.0159,0.0159,0.0159,0,0,0.0328,0.0345,0.036,0.0387,0.0389,0.0408,0.0381,0.0395,0.0405,0.0343,0.0338,0.0311,0.027,0.027,0.0265,0.0242,0.0273,0.0253,0.0261,0.027,0.0272,0.0284,0.0294,0.016,0.016,0.016,0,0,0.0359,0.0372,0.0405,0.0416,0.0435,0.0429,0.0439,0.0437,0.0431,0.0431,0.0393,0.0389,0.0346,0.0336,0.0322,0.0367,0.0322,0.0352,0.0416,0.042,0.043,0.0439,0.0428,0.0435,0.0354,0.0355,0.0355,0,0.0367,0.0416,0.0415,0.0445,0.0465,0.0443,0.048,0.0471,0.046,0.0474,0.0438,0.0424,0.0384,0.0411,0.0417,0.0391,0.0375,0.0381,0.0434,0.0442,0.0449,0.0435,0.0442,0.036,0.0359,0.0359,0.0358,0,0.0428,0.046,0.048,0.0513,0.0524,0.0554,0.0552,0.056,0.0548,0.0545,0.0569,0.0528,0.0525,0.0511,0.0471,0.0513,0.0478,0.0449,0.0412,0.0469,0.0449,0.0454,0.0368,0.0366,0.0364,0.0363,0,0,0.049,0.0518,0.0534,0.0559,0.057,0.0593,0.0612,0.0645,0.0685,0.0658,0.0714,0.0678,0.0667,0.0652,0.0617,0.0612,0.0639,0.0552,0.055,0.0551,0.0638,0.0586,0.0586,0.0618,0.0619,0.062,0.0603,0,0.0551,0.0616,0.0617,0.0678,0.0712,0.0701,0.0731,0.0747,0.0754,0.0794,0.0771,0.0799,0.0717,0.0735,0.0717,0.0673,0.0657,0.0646,0.0574,0.0572,0.0528,0.0592,0.0559,0.0539,0.0608,0.0608,0.0609,0,0.0633,0.0666,0.0734,0.0778,0.0798,0.0823,0.0889,0.0916,0.0948,0.0959,0.0974,0.095,0.0957,0.0875,0.0825,0.082,0.0734,0.0682,0.068,0.06,0.053,0.0492,0.0544,0.0401,0.0616,0.0615,0.0615,0,0.0696,0.0758,0.0816,0.0831,0.0869,0.0907,0.0934,0.0973,0.103,0.1075,0.1127,0.1106,0.1128,0.1031,0.0911,0.0872,0.0847,0.0779,0.0649,0.0644,0.0586,0.0573,0.0501,0.0732,0.0733,0.0733,0.0733,0,0.0764,0.0812,0.0853,0.0884,0.0978,0.098,0.108,0.1109,0.1176,0.1278,0.1225,0.1307,0.1168,0.113,0.098,0.0848,0.09,0.068,0.0647,0.062,0.0611,0.0457,0.0366,0.0732,0.0732,0.0732,0.0732,0,0.0805,0.0828,0.0909,0.0977,0.1003,0.1075,0.1165,0.1238,0.1296,0.1432,0.146,0.1473,0.1433,0.1276,0.114,0.096,0.0726,0.0751,0.072,0.0684,0.0398,0.0314,0.0189,0.0129,0.0603,0.0602,0.0601,0,0.082,0.0864,0.0982,0.1035,0.1065,0.1157,0.1222,0.1293,0.1386,0.1552,0.1636,0.1643,0.1668,0.1441,0.1143,0.0883,0.072,0.0645,0.0553,0.0398,0.0281,0.0216,0.0171,0.0516,0.0514,0.0513,0.0512,0,0.0855,0.0909,0.0976,0.1094,0.1176,0.1287,0.1395,0.1497,0.1621,0.1753,0.1929,0.1968,0.1752,0.148,0.1097,0.0901,0.0526,0.0606,0.0466,0.0231,0.0137,0.0059,0.0499,0.05,0.0501,0.0502,0.0503,0.0503,0.0887,0.0947,0.1044,0.1156,0.1262,0.142,0.1533,0.1673,0.1866,0.2078,0.2116,0.218,0.177,0.1252,0.0975,0.0427,0.044,0.0228,0.0147,0.0103,0.0021,0.0428,0.0376,0.0376,0.0377,0.0377,0.0377,0,0.0914,0.0977,0.1085,0.1239,0.1375,0.1432,0.1645,0.1772,0.202,0.2176,0.231,0.2122,0.1623,0.112,0.0388,0.0025,-0.0091,-0.016,-0.0255,-0.0273,0.0109,0.0081,-0.0061,-0.0061,-0.0061,-0.006,-0.006,-0.006,0.0923,0.1017,0.1079,0.1299,0.1423,0.1614,0.1757,0.1951,0.2094,0.2258,0.2265,0.2257,0.1864,0.0624,-0.0199,-0.0369,-0.0556,-0.0647,-0.0715,-0.0466,-0.0436,-0.0407,-0.0452,-0.0703,-0.0704,-0.1059,-0.1063,-0.1066]}],[{"header":{"parameterUnit":"m.s-1","parameterCategory":2,"la1":30.2991,"la2":30.254,"lo1":-89.0895,"lo2":-89.0444,"dy":0.0017,"dx":0.0017,"nx":28,"ny":28,"refTime":"2024-07-29T03:00:00:Z","depth":"2","parameterNumber":2,"parameterNumberName":"U-component_of_CURRENTS"},"data":[0,0,0,0,0,0,0,0,0,0,0,0,0,0,0,0,0,0,0,0,0,0,0,0,0,0,0,0,0,0,0,0,0,0,0,0,0,0,0,0,0,0,0,0,0,0,0,0,0,0,0,0,0,0,0,0,0,0,0.321,0.3208,0,0.3244,0.3246,0.3248,0.3508,0.3513,0.3517,0.3522,0.3643,0.3642,0.3641,0,0,0,0,0,0,0,0,0,0,0,0,0,0.3023,0.303,0.321,0.3208,0.3207,0.3244,0.3246,0.3249,0.3507,0.3513,0.3518,0.3524,0.3643,0.3642,0.3641,0,0,0,0,0,0,0,0,0,0,0,0,0,0.3106,0.3031,0.321,0.3325,0.3335,0.3243,0.3246,0.3249,0.3506,0.3513,0.352,0.3526,0.3643,0.3642,0.3641,0.3496,0,0,0.3636,0.3635,0,0,0,0,0,0,0,0,0.3101,0.3116,0.331,0.3317,0.3327,0.3361,0.3224,0.3329,0.3505,0.3463,0.3522,0.3529,0.3538,0.3545,0.3565,0.3502,0.3507,0.3636,0.3635,0.3634,0.3634,0,0,0,0,0,0,0,0.3096,0.3113,0.3244,0.3307,0.3317,0.3255,0.328,0.3245,0.3479,0.3467,0.3481,0.345,0.3547,0.3566,0.357,0.3509,0.3636,0.3635,0.3634,0.3633,0.3826,0.3832,0,0,0,0,0,0,0.3062,0.311,0.3243,0.3243,0.3205,0.3253,0.3282,0.336,0.3478,0.3496,0.3444,0.3461,0.3565,0.3571,0.3575,0.3711,0.3634,0.3633,0.3632,0.382,0.3827,0.3834,0,0,0,0,0,0,0.306,0.3078,0.3241,0.3153,0.3168,0.325,0.3334,0.3356,0.3429,0.3456,0.3482,0.3498,0.3571,0.3577,0.3692,0.3707,0.3632,0.3631,0.3813,0.3822,0.3831,0.379,0,0,0,0,0,0,0.3057,0.308,0.3166,0.3155,0.3171,0.3222,0.3326,0.3352,0.3386,0.3412,0.3507,0.3524,0.3576,0.3695,0.3691,0.3703,0.363,0.3805,0.3817,0.3828,0.3784,0.3797,0.3808,0,0,0,0,0,0.3052,0.3171,0.3174,0.3189,0.3279,0.3219,0.3225,0.3313,0.3381,0.3408,0.3555,0.3524,0.3765,0.3697,0.3691,0.3703,0.38,0.3814,0.3827,0.3779,0.3794,0.3807,0,0,0,0,0,0,0.3159,0.3203,0.321,0.3346,0.3276,0.3257,0.3308,0.3307,0.3431,0.3496,0.3561,0.3587,0.3703,0.3725,0.3648,0.3818,0.3788,0.3801,0.3754,0.3768,0.378,0.3827,0.3629,0,0,0,0,0,0.3195,0.3295,0.3248,0.3334,0.3324,0.3298,0.33,0.3312,0.3373,0.3438,0.3511,0.3633,0.3732,0.3775,0.3855,0.3886,0.3898,0.3919,0.3931,0.3939,0.3991,0.4072,0.4093,0.3878,0.3878,0.3878,0,0,0.3241,0.3276,0.3332,0.3355,0.3343,0.3314,0.3331,0.3321,0.3326,0.3417,0.3548,0.365,0.3762,0.3871,0.392,0.3895,0.3991,0.3957,0.3961,0.401,0.4088,0.4108,0.4125,0.3888,0.3886,0.3884,0,0,0.3275,0.3422,0.3454,0.3414,0.3355,0.3356,0.3342,0.3327,0.339,0.3461,0.3578,0.3721,0.3828,0.3934,0.3996,0.4108,0.4055,0.4129,0.4195,0.4271,0.4287,0.4302,0.4234,0.4244,0.4126,0.4126,0.4126,0,0.3341,0.338,0.3431,0.3399,0.3397,0.3374,0.3345,0.3367,0.3396,0.3496,0.3533,0.3819,0.3875,0.4029,0.4125,0.4119,0.4129,0.4099,0.4276,0.4291,0.4307,0.4236,0.4246,0.4126,0.4126,0.4126,0.4126,0,0.3254,0.3358,0.3374,0.3377,0.3378,0.3358,0.3347,0.3399,0.3492,0.3565,0.3761,0.3865,0.4056,0.4079,0.4147,0.429,0.424,0.4265,0.4204,0.4324,0.4243,0.4254,0.4125,0.4125,0.4126,0.4126,0,0,0.3274,0.3325,0.3336,0.3365,0.3379,0.3362,0.3426,0.3509,0.3603,0.3712,0.3851,0.4067,0.4165,0.4249,0.4285,0.4368,0.4433,0.4386,0.439,0.4256,0.4517,0.4336,0.4329,0.4492,0.4497,0.4501,0.4371,0,0.3204,0.3215,0.3238,0.3279,0.3322,0.3372,0.3448,0.3539,0.3666,0.3802,0.3959,0.4115,0.4199,0.4263,0.4377,0.4441,0.4486,0.4461,0.4483,0.4482,0.4256,0.4347,0.4046,0.39,0.4382,0.4384,0.4385,0,0.3087,0.3149,0.3177,0.3341,0.3357,0.3366,0.3541,0.3576,0.3787,0.3906,0.4105,0.4203,0.436,0.4374,0.4548,0.4536,0.4561,0.4583,0.4578,0.4454,0.4329,0.3894,0.3902,0.4404,0.4402,0.4401,0.44,0,0.3056,0.3139,0.3198,0.3213,0.334,0.3393,0.3475,0.3668,0.3753,0.3942,0.4054,0.4259,0.4329,0.445,0.4552,0.4558,0.4685,0.4661,0.4495,0.4474,0.4252,0.4206,0.4783,0.4784,0.4784,0.4784,0.4785,0,0.3021,0.3065,0.3193,0.3199,0.3307,0.3399,0.3515,0.3629,0.3793,0.3921,0.4096,0.4171,0.4382,0.4474,0.4543,0.4552,0.4674,0.4529,0.4473,0.4219,0.4174,0.4677,0.4667,0.4779,0.478,0.4781,0.4782,0,0.3003,0.3034,0.3067,0.3203,0.3284,0.3324,0.3501,0.3598,0.3761,0.3875,0.3929,0.4144,0.4251,0.4382,0.4518,0.4501,0.4526,0.4493,0.4112,0.4017,0.4231,0.4222,0.424,0.4234,0.4228,0.4224,0.422,0,0.3049,0.308,0.3096,0.308,0.3129,0.3253,0.3385,0.3572,0.365,0.3838,0.3878,0.402,0.4089,0.4183,0.4191,0.4182,0.438,0.3871,0.3857,0.4254,0.4197,0.4196,0.4194,0.3482,0.3473,0.3465,0.3459,0,0.3143,0.3052,0.3048,0.3028,0.3065,0.3189,0.3353,0.3392,0.3577,0.3652,0.3718,0.376,0.3847,0.3717,0.3735,0.3711,0.3847,0.3703,0.4272,0.3682,0.3535,0.3481,0.3505,0.3389,0.3396,0.3401,0.3405,0.3407,0.3183,0.3129,0.3023,0.3002,0.3037,0.3103,0.3116,0.3239,0.3297,0.3318,0.3447,0.3402,0.3428,0.3283,0.3193,0.314,0.3395,0.3271,0.3297,0.3332,0.3284,0.3139,0.2899,0.2903,0.2906,0.2909,0.2912,0,0.3217,0.3121,0.3075,0.2913,0.2901,0.3012,0.3106,0.3031,0.2987,0.3041,0.3032,0.276,0.2667,0.2732,0.2525,0.2489,0.2508,0.2409,0.2429,0.2499,0.2561,0.2478,0.1876,0.1872,0.1869,0.1867,0,0,0.317,0.3049,0.2997,0.2864,0.2838,0.2786,0.2815,0.2682,0.2627,0.2473,0.242,0.2561,0.2641,0.2227,0.2162,0.1989,0.2237,0.1915,0.275,0.2845,0.2903,0.306,0.301,0,0,0,0,0]},{"header":{"parameterUnit":"m.s-1","parameterCategory":2,"la1":30.2991,"la2":30.254,"lo1":-89.0895,"lo2":-89.0444,"dy":0.0017,"dx":0.0017,"nx":28,"ny":28,"refTime":"2024-07-29T03:00:00:Z","depth":"2","parameterNumber":3,"parameterNumberName":"V-component_of_CURRENTS"},"data":[0,0,0,0,0,0,0,0,0,0,0,0,0,0,0,0,0,0,0,0,0,0,0,0,0,0,0,0,0,0,0,0,0,0,0,0,0,0,0,0,0,0,0,0,0,0,0,0,0,0,0,0,0,0,0,0,0,0,0.0276,0.0276,0,0.0222,0.0221,0.0219,0.0066,0.0063,0.0061,0.0058,-0.0095,-0.0097,-0.0098,0,0,0,0,0,0,0,0,0,0,0,0,0,0.0238,0.0239,0.0276,0.0276,0.0276,0.0222,0.0221,0.0219,0.0066,0.0063,0.006,0.0057,-0.0095,-0.0096,-0.0098,0,0,0,0,0,0,0,0,0,0,0,0,0,0.022,0.024,0.0276,0.0199,0.0192,0.0222,0.0221,0.0219,0.0067,0.0063,0.0059,0.0055,-0.0094,-0.0096,-0.0099,-0.0034,0,0,-0.0106,-0.0107,0,0,0,0,0,0,0,0,0.0221,0.022,0.021,0.0204,0.0197,0.0153,0.0151,0.0132,0.0068,0.0107,0.0058,0.0054,-0.0013,-0.0023,-0.0033,-0.0041,-0.0047,-0.0106,-0.0108,-0.0109,-0.0109,0,0,0,0,0,0,0,0.0222,0.0222,0.0247,0.0211,0.0203,0.0164,0.0156,0.0147,0.0062,0.0103,0.0094,0.0101,-0.002,-0.003,-0.0038,-0.005,-0.0106,-0.0108,-0.011,-0.0111,-0.016,-0.016,0,0,0,0,0,0,0.0249,0.0224,0.0249,0.0246,0.0208,0.0169,0.016,0.0165,0.0064,0.0048,0.0104,0.0094,-0.0024,-0.0035,-0.0044,-0.0066,-0.0109,-0.0111,-0.0112,-0.016,-0.016,-0.016,0,0,0,0,0,0,0.0249,0.0252,0.0251,0.0239,0.0237,0.0175,0.0181,0.0166,0.0137,0.0067,0.0046,0.0089,-0.0028,-0.0041,-0.0088,-0.007,-0.0112,-0.0114,-0.016,-0.016,-0.016,-0.0049,0,0,0,0,0,0,0.0248,0.0252,0.0249,0.0241,0.0239,0.025,0.0186,0.0168,0.0152,0.0137,0.0049,0.0031,-0.0032,-0.0084,-0.009,-0.0074,-0.0116,-0.016,-0.016,-0.016,-0.0053,-0.0045,-0.0039,0,0,0,0,0,0.0247,0.0256,0.0249,0.0251,0.0242,0.0251,0.0245,0.0182,0.0156,0.0141,0.0074,0.0032,-0.0088,-0.0085,-0.0092,-0.0076,-0.016,-0.016,-0.016,-0.0056,-0.0047,-0.0039,0,0,0,0,0,0,0.0234,0.0243,0.0233,0.0243,0.0244,0.0227,0.0218,0.0198,0.0141,0.0123,0.0046,0.0024,-0.0012,-0.0055,-0.005,-0.0094,-0.0133,-0.0134,-0.0052,-0.0043,-0.0036,-0.0007,-0.0118,0,0,0,0,0,0.0241,0.0247,0.0256,0.0264,0.0272,0.0255,0.0249,0.0222,0.0187,0.0156,0.0099,0.0037,-0.0006,-0.0037,-0.0083,-0.0089,-0.0114,-0.009,-0.0082,-0.0076,-0.006,-0.0052,-0.0041,-0.0159,-0.0159,-0.0159,0,0,0.0244,0.0249,0.0252,0.0262,0.026,0.0279,0.0237,0.0243,0.0244,0.0156,0.0122,0.0068,-0.0002,-0.0032,-0.0051,-0.0072,-0.0065,-0.0075,-0.0069,-0.0056,-0.005,-0.0038,-0.0028,-0.0158,-0.0158,-0.0158,0,0,0.0276,0.0261,0.0288,0.0293,0.0307,0.0293,0.0303,0.0294,0.0265,0.0248,0.0179,0.0139,0.0071,0.0026,-0.0005,0.0025,-0.0022,0.0002,0.0063,0.0071,0.0081,0.0091,0.0043,0.0047,0.0002,0.0002,0.0002,0,0.0274,0.0312,0.0296,0.0329,0.0338,0.0309,0.0345,0.0326,0.0294,0.0293,0.0237,0.0171,0.0102,0.0095,0.0076,0.0047,0.0023,0.004,0.0085,0.0093,0.0101,0.005,0.0053,0.0007,0.0007,0.0006,0.0005,0,0.0349,0.036,0.038,0.0404,0.0407,0.0431,0.0422,0.0416,0.0383,0.0366,0.035,0.0269,0.0231,0.0198,0.0135,0.016,0.0114,0.0102,0.0074,0.0121,0.0061,0.0063,0.0015,0.0013,0.0011,0.001,0,0,0.0389,0.0422,0.0429,0.045,0.0449,0.0469,0.0478,0.049,0.0517,0.0463,0.049,0.0404,0.0378,0.0342,0.0281,0.0266,0.0268,0.0203,0.0201,0.0175,0.025,0.0191,0.0186,0.0274,0.0275,0.0277,0.0176,0,0.0449,0.0525,0.0517,0.0567,0.0602,0.0573,0.059,0.0592,0.0572,0.0582,0.0527,0.0518,0.043,0.0419,0.0397,0.0306,0.0282,0.0294,0.0192,0.0187,0.0148,0.0191,0.0215,0.0127,0.0177,0.0177,0.0178,0,0.0527,0.0566,0.0638,0.066,0.0676,0.0694,0.0728,0.0742,0.0745,0.0735,0.0728,0.0677,0.064,0.0566,0.0465,0.0478,0.0375,0.0298,0.0292,0.0208,0.0135,0.0092,0.0128,0.018,0.0179,0.0179,0.0179,0,0.0586,0.0638,0.0696,0.0708,0.0741,0.0766,0.0777,0.0795,0.0835,0.0845,0.0875,0.082,0.0805,0.0697,0.0517,0.0499,0.0398,0.0356,0.0207,0.0199,0.0184,0.0173,0.0306,0.0306,0.0306,0.0306,0.0307,0,0.0645,0.0687,0.0733,0.077,0.0836,0.084,0.0914,0.0921,0.0971,0.1046,0.0971,0.1014,0.0844,0.0755,0.0578,0.0396,0.045,0.0228,0.0189,0.0215,0.0208,0.0231,0.0223,0.0303,0.0303,0.0304,0.0305,0,0.0676,0.072,0.0799,0.0859,0.0866,0.0928,0.0992,0.1051,0.1096,0.1197,0.1211,0.1166,0.1047,0.0849,0.0654,0.0485,0.0305,0.0226,0.0234,0.0198,0.0073,0.0072,0.005,0.0047,0.0045,0.0043,0.0042,0,0.0685,0.0729,0.0844,0.0912,0.0935,0.1011,0.1051,0.1101,0.1197,0.1297,0.1365,0.1282,0.1232,0.0905,0.0603,0.0295,0.0275,0.0111,0.0085,0.0093,0.0056,0.0058,0.006,0.0084,0.0083,0.0082,0.0082,0,0.0695,0.0758,0.0833,0.0968,0.1045,0.1127,0.1218,0.1324,0.1422,0.1498,0.1591,0.1549,0.1249,0.0942,0.0524,0.0321,0.0158,0.0082,0.0132,0.0146,0.0118,0.0084,0.0087,0.0075,0.0075,0.0076,0.0076,0.0076,0.0703,0.0761,0.0893,0.1014,0.1119,0.1266,0.1364,0.1484,0.1631,0.1764,0.1729,0.1649,0.1326,0.077,0.0436,0.0085,0.0096,-0.0033,-0.0027,-0.0021,0.0003,-0.0026,-0.0097,-0.0097,-0.0098,-0.0098,-0.0098,0,0.0714,0.0787,0.0911,0.1112,0.1251,0.1292,0.1476,0.157,0.1747,0.1806,0.1829,0.1497,0.1168,0.0803,0.0277,-0.0041,-0.0045,-0.0137,-0.0063,-0.0055,-0.0047,-0.0022,-0.0131,-0.0132,-0.0133,-0.0133,0,0,0.0737,0.0854,0.092,0.1177,0.1313,0.1475,0.159,0.1697,0.1777,0.1805,0.1751,0.1652,0.1244,0.0859,0.0448,0.0158,0.012,0.0097,0.0154,0.0298,0.0309,0.0041,0.0092,0,0,0,0,0]}],[{"header":{"parameterUnit":"m.s-1","parameterCategory":2,"la1":30.2991,"la2":30.254,"lo1":-89.0895,"lo2":-89.0444,"dy":0.0017,"dx":0.0017,"nx":28,"ny":28,"refTime":"2024-07-29T03:00:00:Z","depth":"4","parameterNumber":2,"parameterNumberName":"U-component_of_CURRENTS"},"data":[0,0,0,0,0,0,0,0,0,0,0,0,0,0,0,0,0,0,0,0,0,0,0,0,0,0,0,0,0,0,0,0,0,0,0,0,0,0,0,0,0,0,0,0,0,0,0,0,0,0,0,0,0,0,0,0,0,0,0.0926,0.0928,0,0.1022,0.1022,0.1022,0.1057,0.1058,0.1058,0.1059,0.1173,0.1175,0.1178,0,0,0,0,0,0,0,0,0,0,0,0,0,0.0814,0.0815,0.0926,0.0928,0.093,0.1022,0.1022,0.1023,0.1057,0.1058,0.1058,0.1059,0.1172,0.1175,0.1178,0,0,0,0,0,0,0,0,0,0,0,0,0,0.0873,0.0815,0.0925,0.0965,0.097,0.1022,0.1022,0.1023,0.1057,0.1058,0.1059,0.1059,0.1171,0.1175,0.1179,0.1187,0,0,0.119,0.1192,0,0,0,0,0,0,0,0,0.0869,0.0875,0.0957,0.0963,0.0969,0.1037,0.1025,0.1082,0.1057,0.1014,0.1059,0.106,0.1135,0.1141,0.1144,0.1192,0.1197,0.1191,0.1193,0.1195,0.1196,0,0,0,0,0,0,0,0.0865,0.0872,0.0954,0.096,0.0967,0.0993,0.1001,0.1035,0.1062,0.1018,0.1023,0.1048,0.1137,0.114,0.1147,0.1199,0.1191,0.1194,0.1196,0.1198,0.1211,0.1209,0,0,0,0,0,0,0.0869,0.0868,0.0952,0.0958,0.093,0.0995,0.1003,0.1006,0.1061,0.1073,0.1048,0.105,0.1133,0.1143,0.1152,0.1234,0.1195,0.1198,0.12,0.1213,0.1211,0.1209,0,0,0,0,0,0,0.0866,0.0874,0.0948,0.0924,0.0936,0.0997,0.1,0.1008,0.1071,0.1085,0.1096,0.1109,0.1134,0.1146,0.122,0.1236,0.12,0.1203,0.1215,0.1212,0.121,0.1354,0,0,0,0,0,0,0.0861,0.0872,0.0858,0.0923,0.0938,0.1018,0.1,0.101,0.1086,0.1091,0.1141,0.1149,0.1136,0.1215,0.1224,0.1241,0.1206,0.1218,0.1214,0.1211,0.1351,0.1356,0.136,0,0,0,0,0,0.0857,0.0818,0.0856,0.0867,0.0922,0.1022,0.1032,0.107,0.1089,0.1127,0.1154,0.115,0.1194,0.122,0.123,0.1248,0.122,0.1215,0.1211,0.135,0.1355,0.136,0,0,0,0,0,0,0.0775,0.0822,0.0864,0.0848,0.096,0.1032,0.1064,0.1109,0.1159,0.1178,0.118,0.119,0.1248,0.1215,0.1242,0.1221,0.1184,0.1182,0.1285,0.1291,0.1295,0.1349,0.121,0,0,0,0,0,0.0754,0.0746,0.0843,0.0859,0.0914,0.101,0.1052,0.1108,0.1171,0.1196,0.1219,0.1218,0.1224,0.1242,0.1242,0.1273,0.13,0.1261,0.1265,0.127,0.131,0.1396,0.1417,0.1194,0.1194,0.1194,0,0,0.0754,0.0767,0.0779,0.0845,0.0933,0.1009,0.1037,0.1146,0.1194,0.1201,0.1257,0.1269,0.1238,0.1259,0.1274,0.1248,0.1334,0.1265,0.1271,0.1308,0.1395,0.1418,0.1439,0.1191,0.1192,0.1192,0,0,0.0786,0.0762,0.0807,0.0879,0.1013,0.104,0.1093,0.1203,0.1237,0.1312,0.1302,0.1348,0.1344,0.1335,0.1324,0.1352,0.1369,0.1308,0.1384,0.1467,0.1489,0.1509,0.1548,0.1571,0.1296,0.1296,0.1296,0,0.0797,0.0838,0.0851,0.0929,0.0985,0.1065,0.1168,0.1196,0.1306,0.1344,0.1341,0.1377,0.1377,0.1408,0.1406,0.1376,0.1414,0.1387,0.1487,0.1507,0.1525,0.156,0.1584,0.1303,0.1302,0.1301,0.1301,0,0.0904,0.0931,0.0975,0.1063,0.1111,0.1215,0.1273,0.1328,0.1362,0.1395,0.1471,0.1477,0.1509,0.1477,0.1468,0.1559,0.1539,0.151,0.1507,0.1559,0.1588,0.161,0.1312,0.1309,0.1307,0.1306,0,0,0.0967,0.1034,0.1061,0.1099,0.1192,0.1241,0.1311,0.1397,0.1463,0.1507,0.16,0.1599,0.1641,0.1629,0.1616,0.1672,0.1831,0.1661,0.1663,0.1758,0.2011,0.1838,0.1845,0.1847,0.1852,0.1856,0.1973,0,0.1087,0.1164,0.1196,0.1292,0.1328,0.1391,0.1421,0.1488,0.1556,0.1639,0.1657,0.1744,0.1675,0.1753,0.1791,0.1842,0.19,0.1801,0.1894,0.1896,0.1788,0.1869,0.1871,0.199,0.1995,0.1998,0.2001,0,0.1196,0.1206,0.1298,0.1329,0.1372,0.1432,0.1517,0.1588,0.1694,0.177,0.1869,0.1914,0.2012,0.1964,0.207,0.2021,0.2046,0.2055,0.2059,0.1877,0.1766,0.1922,0.2041,0.2038,0.2035,0.2032,0.203,0,0.1135,0.1269,0.1303,0.1334,0.1395,0.1469,0.1525,0.1629,0.1713,0.192,0.2022,0.2115,0.2197,0.2258,0.2257,0.2225,0.2357,0.2305,0.2154,0.214,0.2204,0.2181,0.2415,0.2415,0.2414,0.2414,0.2414,0,0.115,0.1184,0.1286,0.1289,0.1353,0.1441,0.1566,0.1656,0.184,0.1941,0.2102,0.2188,0.2293,0.2352,0.2347,0.2299,0.2429,0.2208,0.2181,0.2245,0.2227,0.2218,0.2194,0.2418,0.2417,0.2417,0.2416,0,0.1036,0.1114,0.1148,0.1257,0.1305,0.1352,0.1559,0.1639,0.1858,0.2027,0.2124,0.2293,0.2392,0.2426,0.2522,0.2391,0.2396,0.2343,0.2408,0.2375,0.2106,0.2087,0.2234,0.2229,0.2225,0.2222,0.2219,0,0.094,0.0957,0.1084,0.1131,0.1199,0.132,0.1375,0.1599,0.1718,0.2038,0.2078,0.229,0.2368,0.2343,0.2391,0.2395,0.2336,0.232,0.2226,0.214,0.21,0.2086,0.2073,0.2213,0.2212,0.2211,0.221,0,0.0783,0.0876,0.092,0.1008,0.1093,0.1176,0.1316,0.1399,0.1673,0.1877,0.2046,0.2147,0.2217,0.2254,0.2269,0.2246,0.2334,0.2278,0.2285,0.2197,0.2117,0.2077,0.2068,0.2197,0.2198,0.22,0.2201,0,0.0688,0.07,0.0814,0.0894,0.0992,0.1044,0.1124,0.1282,0.1428,0.1804,0.1829,0.2036,0.2199,0.2174,0.2177,0.2165,0.2126,0.2033,0.2052,0.2068,0.1949,0.1818,0.1823,0,0,0,0,0,0.06,0.0629,0.0692,0.0794,0.0896,0.0971,0.1091,0.1194,0.1453,0.1524,0.1711,0.18,0.1896,0.1964,0.1917,0.2051,0.2092,0.198,0.1983,0.2121,0.2137,0.2007,0,0,0,0,0,0,0.055,0.0606,0.0652,0.072,0.0797,0.0886,0.0965,0.1114,0.1183,0.1453,0.1497,0.17,0.178,0.194,0.1902,0.1919,0.1876,0.2101,0.2095,0.2113,0.2127,0.2139,0.2011,0,0,0,0,0]},{"header":{"parameterUnit":"m.s-1","parameterCategory":2,"la1":30.2991,"la2":30.254,"lo1":-89.0895,"lo2":-89.0444,"dy":0.0017,"dx":0.0017,"nx":28,"ny":28,"refTime":"2024-07-29T03:00:00:Z","depth":"4","parameterNumber":3,"parameterNumberName":"V-component_of_CURRENTS"},"data":[0,0,0,0,0,0,0,0,0,0,0,0,0,0,0,0,0,0,0,0,0,0,0,0,0,0,0,0,0,0,0,0,0,0,0,0,0,0,0,0,0,0,0,0,0,0,0,0,0,0,0,0,0,0,0,0,0,0,0.0216,0.0216,0,0.0186,0.0185,0.0185,0.0179,0.0179,0.018,0.018,0.0106,0.0103,0.0101,0,0,0,0,0,0,0,0,0,0,0,0,0,0.0207,0.0208,0.0216,0.0216,0.0216,0.0186,0.0185,0.0185,0.0179,0.0179,0.018,0.018,0.0106,0.0104,0.0101,0,0,0,0,0,0,0,0,0,0,0,0,0,0.0197,0.0208,0.0216,0.021,0.0209,0.0186,0.0185,0.0185,0.0179,0.0179,0.018,0.018,0.0107,0.0104,0.01,0.0069,0,0,0.009,0.0088,0,0,0,0,0,0,0,0,0.0197,0.0197,0.0211,0.021,0.021,0.0188,0.0155,0.0144,0.0179,0.0189,0.018,0.0181,0.0129,0.0124,0.0116,0.0065,0.0062,0.009,0.0087,0.0086,0.0085,0,0,0,0,0,0,0,0.0198,0.0198,0.0203,0.0211,0.021,0.0188,0.0187,0.0153,0.0155,0.0188,0.0188,0.0186,0.0129,0.012,0.0114,0.0061,0.009,0.0087,0.0084,0.0083,-0.0035,-0.0036,0,0,0,0,0,0,0.0207,0.0199,0.0204,0.0202,0.0206,0.0188,0.0187,0.0193,0.0156,0.0152,0.0186,0.0186,0.0125,0.0118,0.0112,0.0078,0.0086,0.0083,0.0081,-0.0034,-0.0035,-0.0037,0,0,0,0,0,0,0.0207,0.0208,0.0205,0.02,0.0198,0.0188,0.0195,0.0192,0.0192,0.0155,0.015,0.019,0.0125,0.0116,0.008,0.0075,0.0081,0.0078,-0.0033,-0.0035,-0.0036,0.0006,0,0,0,0,0,0,0.0207,0.0208,0.022,0.0201,0.0199,0.0199,0.0194,0.0192,0.0191,0.0191,0.0156,0.0149,0.0125,0.0085,0.0076,0.007,0.0075,-0.0032,-0.0034,-0.0036,0.0006,0.0007,0.0007,0,0,0,0,0,0.0207,0.0214,0.0221,0.0221,0.0214,0.02,0.0197,0.0189,0.0191,0.0191,0.0161,0.0151,0.0066,0.0081,0.0071,0.0064,-0.0031,-0.0033,-0.0035,0.0006,0.0007,0.0007,0,0,0,0,0,0,0.0218,0.0214,0.0221,0.0228,0.0221,0.0199,0.0208,0.0194,0.0172,0.0178,0.0138,0.0129,0.0088,0.0067,0.0085,0.0021,0.0015,0.0011,0.005,0.005,0.005,0.0097,0.0072,0,0,0,0,0,0.0227,0.0234,0.0224,0.0234,0.024,0.0226,0.0222,0.0215,0.0191,0.0184,0.0152,0.0114,0.0067,0.0055,0.001,-0.0016,-0.004,-0.003,-0.003,-0.003,-0.0001,-0.0063,-0.0065,-0.0045,-0.0045,-0.0044,0,0,0.024,0.0235,0.0244,0.0238,0.0242,0.0243,0.0226,0.0228,0.0223,0.0177,0.0161,0.0109,0.0055,0.0018,-0.0,0.0006,-0.0051,-0.0033,-0.0031,-0.0002,-0.0065,-0.0067,-0.0069,-0.0046,-0.0046,-0.0046,0,0,0.0264,0.0268,0.0286,0.0282,0.0283,0.0264,0.0267,0.0248,0.0241,0.0211,0.0167,0.012,0.0062,0.0022,-0.0007,-0.0032,-0.0059,-0.0053,0.0001,-0.006,-0.0062,-0.0063,-0.0099,-0.0104,-0.004,-0.0039,-0.0039,0,0.0282,0.0299,0.0288,0.0301,0.0305,0.0277,0.0295,0.0274,0.0237,0.0231,0.0215,0.011,0.0065,0.0014,0.0009,-0.0029,-0.0057,0.0009,-0.0057,-0.0059,-0.0061,-0.0098,-0.0104,-0.0038,-0.0038,-0.0038,-0.0038,0,0.0318,0.0333,0.0346,0.0352,0.035,0.0358,0.0336,0.0323,0.0302,0.0273,0.0221,0.0149,0.0097,0.0059,0.0034,-0.0009,-0.0023,-0.0059,-0.0048,-0.006,-0.0099,-0.0106,-0.0035,-0.0036,-0.0036,-0.0037,0,0,0.0346,0.037,0.0372,0.0397,0.0381,0.0386,0.0377,0.0361,0.0368,0.0304,0.0294,0.0202,0.0169,0.0136,0.0077,0.0034,-0.0013,0.0002,-0.0003,-0.0015,-0.0129,-0.0118,-0.0125,-0.0061,-0.0062,-0.0063,-0.0151,0,0.0381,0.0426,0.0414,0.0449,0.0478,0.0451,0.0449,0.0427,0.0398,0.0372,0.029,0.0254,0.0194,0.0179,0.0117,0.001,-0.0028,0.0016,-0.013,-0.0133,-0.0108,-0.0131,-0.0066,-0.0156,-0.0157,-0.0159,-0.0159,0,0.0415,0.0441,0.0498,0.0524,0.0536,0.0545,0.0553,0.0548,0.0498,0.0479,0.0421,0.0355,0.0273,0.0229,0.0061,0.0092,0.0006,-0.0075,-0.0082,-0.0081,-0.0134,-0.0144,-0.0172,-0.0171,-0.017,-0.0169,-0.0169,0,0.0453,0.0491,0.0544,0.0554,0.0577,0.0602,0.0608,0.0588,0.0604,0.0559,0.0554,0.0432,0.0376,0.024,0.0072,0.0072,-0.0114,-0.0147,-0.0217,-0.0217,-0.0217,-0.0215,-0.0242,-0.0242,-0.0241,-0.0241,-0.0241,0,0.0486,0.0523,0.0577,0.0609,0.0674,0.0673,0.073,0.0717,0.0711,0.072,0.0625,0.0586,0.0379,0.024,0.0093,-0.0085,-0.0106,-0.0195,-0.0239,-0.02,-0.0194,-0.0222,-0.0219,-0.0245,-0.0244,-0.0243,-0.0243,0,0.0523,0.055,0.0617,0.0674,0.0702,0.0755,0.0821,0.085,0.0844,0.085,0.0843,0.0696,0.0517,0.031,0.0073,-0.0049,-0.0223,-0.0275,-0.0199,-0.024,-0.0283,-0.0277,-0.0349,-0.0349,-0.0349,-0.0349,-0.035,0,0.0544,0.0593,0.0686,0.0731,0.0766,0.0847,0.0896,0.0919,0.0944,0.0904,0.0892,0.0746,0.0624,0.0294,0.0075,-0.0196,-0.0233,-0.0313,-0.0301,-0.0259,-0.0295,-0.0288,-0.0282,-0.035,-0.035,-0.035,-0.035,0,0.0586,0.0628,0.0678,0.0792,0.0861,0.0935,0.1002,0.1031,0.1035,0.104,0.0936,0.0771,0.0564,0.0297,0.009,-0.011,-0.0261,-0.0316,-0.0317,-0.0307,-0.0262,-0.0296,-0.0289,-0.0351,-0.0351,-0.0351,-0.0351,0,0.0609,0.0647,0.0727,0.0815,0.0918,0.0979,0.1016,0.1031,0.1056,0.1015,0.0971,0.076,0.0634,0.0342,0.0138,-0.0047,-0.0087,-0.0143,-0.0154,-0.0155,-0.0077,0.001,-0.0023,0,0,0,0,0,0.0623,0.0648,0.0739,0.0824,0.094,0.0994,0.1061,0.108,0.1095,0.1037,0.1013,0.0827,0.0529,0.0382,0.0202,0.0127,-0.0126,-0.009,-0.0198,-0.0357,-0.0356,-0.0297,0,0,0,0,0,0,0.0609,0.0685,0.072,0.0831,0.09,0.1006,0.1048,0.105,0.1015,0.1006,0.0843,0.0794,0.0494,0.0637,0.0202,0.0145,0.0054,-0.0221,-0.0224,-0.0358,-0.0356,-0.0356,-0.0295,0,0,0,0,0]}]]